This is the latest recevied weather packets stored in our database for station/object KE9ADS. If no packets are shown the sender has not sent any weather packets the latest 1 day(s).
| Time | Temp. | Humidity | Pressure | Rain* | Wind** | Luminosity | Snow |
|---|---|---|---|---|---|---|---|
| 1778040127 | 10.56° C | 53% | 1014 hPa | 0 mm | 0 m/s | 0 W/m² | - |
| 1778039527 | 10° C | 56% | 1014.1 hPa | 0 mm | 0 m/s | 0 W/m² | - |
| 1778038926 | 10° C | 60% | 1014 hPa | 0 mm | 0 m/s | 0 W/m² | - |
| 1778038326 | 10° C | 62% | 1014 hPa | 0 mm | 0 m/s | 0 W/m² | - |
| 1778037726 | 10° C | 59% | 1013.8 hPa | 0 mm | 0 m/s | 0 W/m² | - |
| 1778037126 | 10° C | 59% | 1014.1 hPa | 0 mm | 0 m/s | 0 W/m² | - |
| 1778036521 | 10° C | 57% | 1013.6 hPa | 0 mm | 0 m/s | 0 W/m² | - |
| 1778035919 | 10.56° C | 56% | 1013.5 hPa | 0 mm | 0 m/s | 0 W/m² | - |
| 1778035319 | 10.56° C | 55% | 1013.3 hPa | 0 mm | 0 m/s | 0 W/m² | - |
| 1778034719 | 10.56° C | 54% | 1013.3 hPa | 0 mm | 0 m/s | 0 W/m² | - |
| 1778034119 | 10.56° C | 54% | 1013.1 hPa | 0 mm | 0 m/s | 0 W/m² | - |
| 1778033520 | 10.56° C | 53% | 1012.7 hPa | 0 mm | 0 m/s | 0 W/m² | - |
| 1778032914 | 11.11° C | 51% | 1012.6 hPa | 0 mm | 0 m/s | 0 W/m² | - |
| 1778032309 | 11.11° C | 50% | 1012.8 hPa | 0 mm | 0 m/s | 0 W/m² | - |
| 1778031708 | 11.11° C | 50% | 1012.6 hPa | 0 mm | 0 m/s | 0 W/m² | - |
| 1778031103 | 11.11° C | 49% | 1012.5 hPa | 0 mm | 0 m/s | 0 W/m² | - |
| 1778030501 | 11.67° C | 49% | 1012.6 hPa | 0 mm | 0.45 m/s, 233° | 0 W/m² | - |
| 1778029901 | 11.67° C | 49% | 1012.4 hPa | 0 mm | 0.45 m/s, 235° | 1 W/m² | - |
| 1778029296 | 11.67° C | 47% | 1012.3 hPa | 0 mm | 0 m/s | 2 W/m² | - |
| 1778028696 | 11.67° C | 46% | 1012.3 hPa | 0 mm | 0 m/s | 4 W/m² | - |
| 1778028095 | 12.22° C | 46% | 1012.5 hPa | 0 mm | 0 m/s | 9 W/m² | - |
| 1778027493 | 12.22° C | 45% | 1012.1 hPa | 0 mm | 0.45 m/s, 235° | 17 W/m² | - |
| 1778026891 | 12.78° C | 43% | 1012.1 hPa | 0 mm | 0.89 m/s, 251° | 21 W/m² | - |
| 1778026291 | 12.78° C | 41% | 1012.3 hPa | 0 mm | 0.89 m/s, 247° | 33 W/m² | - |
| 1778025685 | 12.78° C | 43% | 1012.3 hPa | 0 mm | 0.45 m/s, 239° | 37 W/m² | - |
* Rain latest hour (hover to see other rain measurements)
** Current wind speed in m/s (hover to see current wind gust speed)